SCP
0 0 0 0 0 0 0 0 0 0 0 0 0 0 0 0 0 0 0 0 0 0 0 0 0 0 0 0 0 0 0 0 0 0 0 0 0 0
0 0 0 0 0 0 0 0 0 0 0 0 0 0 0 0 0 0 0 0 0 0 0 0 0 0 0 0 0 0 0 0 0 0 0 0 0 0
0 0 0 0 0 0 0 0 0 0 0 0 0 0 0 0 0 0 0 0 0 0 0 0 0 0 0 0 0 0 0 0 0 0 0 0 0 0
0 0 0 0 0 0 0 0 0 0 0 0 0 0 0 0 0 0 0 0 0 0 0 0 0 0 0 0 0 0 0 0 0 0 0 0 0 0
0 0 0 0 0 0 0 0 0 0 0 0 0 0 0 0 0 0 0 0 0 0 0 0 0 0 0 0 0 0 0 0 0 0 0 0 0 0
0 0 0 0 0 0 0 0 0 0 0 0 0 0 0 0 0 0 0 0 0 0 0 0 0 0 0 0 0 0 0 0 0 0 0 0 0 0
0 0 0 0 0 0 0 0 0 0 0 0 0 0 0 0 0 0 0 0 0 0 0 0 0 0 0 0 0 0 0 0 0 0 0 0 0 0
0 0 0 0 0 0 0 0 0 0 0 0 0 0 0 0 -0 0 0 0 0 0 0 0 0 0 0 0 0 0 0 0 0 0 0 0 0 0
0 0 0 0 0 0 0 0 0 0 0 0 0 0 0 0 0 0 0 -0 -0 -0 0 0 0 0 0 0 0 0 0 0 0 0 0 0 0 0
0 0 0 0 0 0 0 0 0 0 0 0 0 0 0 0 0 0 0 0 -0 -0 0 0 0 0 0 0 0 0 0 0 0 0 0 0 0 0
0 0 0 0 0 0 0 0 0 0 0 0 0 0 0 0 0 0 0 0 0 0 0 0 0 0 0 0 0 0 0 0 0 0 0 0 0 0
0 0 0 0 0 0 0 0 0 0 0 0 0 0 0 0 0 0 0 0 0 0 0 0 0 0 0 0 0 0 0 0 0 0 0 0 0 0
0 0 0 0 0 0 0 0 0 0 0 0 0 0 0 0 0 0 0 0 0 0 0 0 0 0 0 0 0 0 0 0 0 0 0 0 0 0
0 0 0 0 0 0 0 0 0 0 0 0 0 0 0 0 0 0 0 0 0 0 0 0 0 0 0 0 0 0 0 0 0 0 0 0 0 0
0 0 0 0 0 0 0 0 0 0 0 0 0 0 0 0 0 0 0 0 0 0 0 0 0 0 0 0 0 0 0 0 0 0 0 0 0 0
0 0 0 0 0 0 0 0 0 0 0 0 0 0 0 0 0 0 0 0 0 0 0 0 0 0 0 0 0 0 0 0 0 0 0 0 0 0
0 0 0 0 0 0 0 0 0 0 0 0 0 0 0 0 0 0 0 0 0 0 0 0 0 0 0 0 0 0 0 0 0 0 0 0 0 0
0 0 0 0 0 0 0 0 0 0 0 0 0 0 0 0 0 0 0 0 0 0 0 0 0 0 0 0 0 0 0 0 0 0 0 0 0 0
0 0 0 0 0 0 0 0 0 0 0 0 0 0 0 0 0 0 0 0 0 0 0 0 0 0 0 0 0 0 0 0 0 0 0 0 0 0
0 0 0 0 0 0 0 0 0 0 0 0 0 0 0 0 0 0 0 0 0 0 0 0 0 0 0 0 0 0 0 0 0 0 0 0 0 0
0 0 0 0 0 0 0 0 0 0 0 0 0 0 0 0 0 0 0 0 0 0 0 0 0 0 0 0 0 0 0 0 0 0 0 0 0 0
0 0 0 0 0 0 0 0 0 0 0 0 0 0 0 0 0 0 0 0 0 0 0 0 0 0 0 0 0 0 0 0 0 0 -0 -0 -0 0
0 0 0 0 0 0 0 0 0 0 0 0 0 0 0 0 0 0 0 0 0 0 0 0 0 0 0 0 0 0 0 0 0 0 -0 -0 0 0
Wind_Speed
6 4 1 1 2 2 2 3 4 3 3 3 2 1 1 2 5 5 4 7 10 9 9 8 7 6 5 5 4 4 5 5 5 7 8 10 11 11
6 6 4 3 2 0 1 2 3 4 3 4 4 2 2 2 4 5 5 9 10 10 10 9 8 6 4 2 2 2 3 5 6 8 9 10 11 12
6 7 5 3 4 3 1 1 2 3 3 3 2 1 2 3 2 2 3 3 5 9 11 10 8 6 4 2 1 1 2 4 6 8 10 10 11 12
6 6 5 7 6 5 3 2 0 2 4 4 3 2 2 3 4 4 3 4 3 8 14 11 9 7 6 4 3 2 1 2 3 6 7 8 9 11
7 7 7 7 2 1 3 3 2 1 2 3 3 2 2 1 2 2 2 2 1 5 11 10 10 8 6 4 4 2 1 2 2 4 5 6 8 11
8 8 7 6 5 3 3 3 3 2 1 1 2 1 0 1 1 2 3 2 3 3 2 5 7 7 7 7 5 3 2 2 3 5 5 6 7 9
9 9 9 11 11 8 6 5 5 4 2 1 1 1 2 2 1 1 2 2 3 3 1 2 2 2 3 2 2 4 5 8 11 11 10 9 8 9
9 8 9 11 12 12 12 10 9 6 3 3 2 2 3 3 2 2 2 2 2 1 1 0 1 1 1 2 6 11 14 12 10 9 9 9 11 12
7 6 6 7 7 6 7 10 12 14 11 7 5 5 4 4 3 2 2 1 2 3 2 1 2 1 2 4 13 15 13 11 10 11 11 10 10 11
6 6 7 7 7 9 5 8 9 9 10 8 6 4 2 3 3 2 2 2 4 4 4 1 3 2 2 3 10 13 12 11 11 11 10 10 10 12
6 6 6 6 10 12 7 6 7 7 10 11 10 11 11 9 3 2 2 2 2 2 5 2 2 3 2 1 4 12 11 10 11 10 9 9 10 9
5 7 9 7 9 11 6 4 7 6 6 7 10 13 12 13 15 9 4 2 2 2 3 3 2 3 3 2 2 3 5 9 11 9 9 9 8 3
2 3 4 7 9 10 8 6 9 7 6 6 6 7 6 6 7 7 6 4 3 2 3 3 1 1 2 4 3 2 2 3 3 4 7 9 11 8
1 1 3 8 9 10 11 13 12 8 5 5 6 6 6 6 6 5 6 5 4 3 4 3 1 1 1 2 3 3 2 3 2 1 1 5 7 8
1 1 4 8 9 9 13 13 10 7 6 6 6 6 5 5 5 5 5 5 4 5 5 5 3 2 1 2 2 3 4 3 2 2 2 3 4 4
1 3 4 6 7 8 8 7 6 5 6 5 5 4 4 5 5 5 5 5 3 3 5 5 4 2 1 3 4 4 3 4 3 3 4 4 3 3
4 2 3 3 3 3 4 4 4 4 5 5 4 4 5 5 5 5 4 4 3 4 4 4 4 3 4 4 4 4 3 4 3 3 4 5 5 5
4 3 4 3 2 2 2 3 3 3 3 3 3 3 3 3 3 2 3 3 2 2 2 3 4 3 3 4 4 3 3 3 4 5 5 6 7 5
5 3 2 1 1 1 1 1 1 1 1 0 1 0 1 2 3 3 3 2 3 3 3 2 2 2 3 3 5 5 5 7 7 7 7 7 8 9
3 2 2 1 1 2 2 2 2 2 2 2 2 2 2 2 2 2 3 3 4 4 3 2 2 2 3 5 6 8 10 9 7 7 8 9 11 14
2 1 2 2 2 2 2 3 3 3 3 3 3 3 3 3 3 3 4 6 5 3 5 4 4 7 4 4 5 6 6 9 12 9 9 9 11 10
3 3 3 3 3 3 3 3 3 4 3 3 4 4 4 4 4 4 4 4 4 5 6 6 5 4 3 5 7 9 9 7 9 16 17 16 12 12
4 4 4 4 4 3 4 4 4 4 4 4 4 4 4 4 5 5 5 5 5 5 6 6 4 4 5 6 8 8 11 10 8 8 11 16 20 22
Wind_Direction
93 72 31 227 200 179 173 160 156 183 233 254 248 216 170 151 150 137 144 160 152 148 146 140 131 117 95 74 58 36 14 10 12 8 358 353 351 350
101 79 42 349 343 107 186 185 160 162 204 229 233 244 191 186 167 152 170 166 165 162 158 153 147 141 128 94 62 39 10 8 14 14 4 359 353 354
92 94 86 32 3 6 13 196 186 158 181 227 252 266 187 173 159 169 163 149 170 175 167 165 162 158 157 170 213 9 9 4 360 359 357 354 352 352
98 92 80 67 24 346 8 25 85 193 175 208 234 226 221 197 168 183 185 166 179 185 173 176 174 175 188 197 212 244 294 323 340 348 349 345 345 345
69 81 79 93 153 1 32 32 31 18 183 185 219 222 256 12 103 91 71 88 191 191 171 185 177 182 185 173 161 150 193 241 277 303 305 305 319 330
58 63 74 96 112 96 61 34 32 41 43 157 143 121 50 358 53 105 109 74 38 16 91 131 134 128 116 110 118 107 77 24 357 347 330 308 306 319
37 36 42 52 64 73 73 53 41 34 32 34 73 93 65 41 65 114 133 128 72 18 14 37 81 97 84 71 97 101 91 84 70 56 38 13 352 337
28 24 31 37 36 39 50 57 58 55 47 45 26 51 66 45 13 42 102 157 147 59 81 183 293 102 54 70 91 91 86 77 65 46 28 12 3 355
36 24 26 22 39 29 41 63 58 57 60 54 49 35 27 23 15 57 76 32 89 357 0 52 352 55 39 72 92 83 72 60 52 40 23 11 359 347
42 30 23 6 24 29 27 69 67 63 59 57 60 49 47 11 11 5 55 74 85 43 2 67 1 345 12 52 69 63 53 48 40 25 7 353 349 343
33 22 33 2 31 40 36 62 64 44 53 57 69 70 66 61 59 48 27 57 93 41 6 21 359 329 326 329 27 34 35 33 18 6 350 339 338 339
30 17 16 22 41 57 44 43 64 43 49 63 62 60 52 48 48 50 30 55 98 100 6 7 4 340 303 306 352 20 30 10 355 349 347 347 352 11
37 9 345 26 40 45 49 46 54 43 53 70 66 57 49 44 40 38 35 37 45 64 8 7 347 343 327 313 319 344 15 345 327 334 348 345 342 338
64 346 354 45 42 46 53 48 46 44 45 64 64 52 43 41 38 33 31 32 31 38 8 3 8 0 329 305 293 317 332 293 282 287 296 311 320 318
182 140 50 58 56 43 50 48 43 38 45 56 55 44 29 34 40 21 16 17 23 32 22 15 12 340 281 267 277 294 307 285 273 292 282 265 268 274
5 51 64 79 70 58 51 45 38 44 54 52 45 29 26 22 30 15 3 7 11 17 1 3 15 5 317 278 272 264 247 266 290 284 264 256 263 279
128 100 81 75 70 61 59 51 45 46 46 45 42 30 28 17 12 9 1 359 359 350 343 341 343 327 280 253 266 273 267 255 256 275 300 294 274 257
104 104 95 83 67 47 36 43 40 48 41 33 41 25 19 356 340 352 350 338 317 311 316 325 335 332 316 277 220 263 285 278 300 304 299 289 289 283
53 58 62 84 139 176 186 189 205 191 171 139 148 231 297 321 343 334 328 325 305 295 290 304 328 332 337 313 295 298 309 310 306 299 292 286 288 295
33 28 -0 322 263 229 218 216 228 236 227 211 217 231 245 257 265 268 285 277 283 288 296 287 267 279 290 305 299 287 287 282 285 290 296 295 292 295
354 359 344 327 298 269 254 239 229 239 246 225 230 232 238 237 252 259 264 290 298 294 289 273 260 292 302 293 276 279 276 277 284 281 286 292 299 298
283 288 290 284 283 274 266 256 249 259 259 235 243 244 242 235 240 252 249 254 258 250 266 272 269 263 246 268 280 286 288 286 283 285 282 276 276 281
248 252 262 267 269 261 255 255 249 250 249 245 247 244 236 235 238 235 240 242 248 254 261 270 263 243 253 264 275 280 284 288 292 293 287 286 284 282